Cloud_Cover
100 100 100 100 100 100 100 100 100 100 100 100 100 100 96 95 86 100 72 56 13 14 45 5 19 46 100 96 95 86 89 100 51 10 72 97 13 94 10 54 0 6 0
56 100 100 100 100 100 100 100 100 100 100 100 100 100 98 94 100 87 100 66 98 36 68 46 87 31 100 100 100 100 100 100 100 37 7 50 14 85 11 14 0 0 1
4 100 100 100 100 100 100 100 100 100 100 100 100 100 100 54 37 98 44 100 86 20 46 84 96 95 88 90 86 62 96 100 100 62 5 100 89 18 7 4 0 0 0
1 5 95 100 100 100 100 100 100 100 100 100 100 100 100 100 89 87 46 100 100 7 68 68 20 98 5 100 100 100 56 100 100 99 88 29 50 98 25 38 0 0 0
0 5 2 100 99 100 100 100 100 100 100 100 100 100 100 100 100 76 100 100 92 49 43 9 19 5 51 68 36 44 80 68 100 100 99 5 22 80 59 56 20 0 0
0 5 5 10 100 100 100 100 100 100 100 100 100 100 100 100 100 100 100 100 100 93 77 7 98 79 80 78 57 69 81 100 100 100 100 5 4 7 11 5 39 0 8
5 5 5 5 48 100 100 100 100 100 100 100 100 100 100 100 100 100 100 100 100 90 93 86 86 100 100 84 59 4 99 100 100 100 100 6 5 2 1 0 47 100 1
49 59 100 8 93 100 100 100 100 100 100 100 100 100 100 100 100 100 100 100 100 100 98 100 100 100 94 66 42 6 85 100 100 100 100 96 22 5 4 0 0 1 0
92 100 98 5 7 100 100 100 100 100 100 100 100 100 100 100 100 100 100 100 100 100 93 96 100 97 75 98 73 100 59 88 100 100 100 100 100 97 14 4 0 5 5
100 100 66 5 68 100 100 100 100 100 100 100 100 100 100 100 100 100 96 100 100 100 100 79 100 95 6 100 5 77 99 60 79 100 100 100 100 100 100 77 5 5 5
100 99 5 5 6 100 100 100 100 100 100 100 100 100 100 100 100 100 100 100 100 100 100 100 100 93 24 27 5 91 100 100 99 100 100 100 100 100 100 100 100 11 5
16 10 5 5 99 100 100 100 100 100 100 100 100 100 100 100 100 100 100 100 100 100 100 100 86 93 80 72 86 32 44 84 78 100 100 100 100 100 100 100 100 100 100
5 10 25 6 100 100 100 100 100 100 100 100 100 100 100 100 100 100 100 100 100 100 100 100 100 100 100 100 98 100 33 22 25 70 95 95 90 75 100 100 100 100 100
92 100 71 100 100 100 100 100 100 100 100 100 100 100 100 100 100 100 100 100 100 100 100 100 100 100 98 100 100 98 72 7 10 86 58 85 80 93 100 98 100 51 98
94 86 100 100 100 100 100 100 100 100 100 100 100 100 100 100 100 100 100 100 100 100 92 100 100 100 100 99 100 100 59 99 100 72 5 5 55 82 71 100 76 40 5
43 5 98 100 100 100 100 100 100 100 100 100 100 100 100 100 100 100 100 100 100 100 100 100 100 100 100 74 100 100 100 100 92 83 6 5 6 9 51 5 48 93 64
94 5 99 100 100 100 100 100 100 100 100 100 100 100 100 100 100 100 100 100 100 100 100 100 100 100 100 100 100 100 99 100 100 100 88 5 5 5 5 5 5 10 98
100 98 92 100 100 100 100 100 100 100 100 100 100 100 100 100 100 100 100 100 100 100 100 100 100 100 100 100 100 100 94 93 99 100 100 99 88 58 8 9 24 5 5
100 100 73 100 100 100 100 100 100 100 100 100 100 100 100 100 100 100 100 100 100 100 100 100 100 100 100 100 100 100 100 100 100 100 99 67 51 62 11 5 5 5 5
100 100 8 99 100 100 100 100 100 100 100 100 100 100 100 100 100 100 100 100 100 100 100 100 100 100 100 100 100 100 100 100 100 100 73 100 54 94 100 10 16 6 5
86 100 38 100 100 100 100 100 100 100 100 100 100 100 100 100 100 100 100 100 100 100 100 100 100 100 100 100 100 100 100 100 100 100 100 100 98 94 100 100 98 49 39
4 5 5 66 100 100 100 100 100 100 100 100 100 100 100 100 100 100 100 100 100 100 100 100 100 100 100 100 100 100 100 100 100 100 100 100 100 96 100 77 100 100 100
0 0 0 11 94 100 100 100 100 100 100 100 100 100 100 100 100 100 100 100 100 100 100 100 100 100 100 100 100 100 100 100 100 100 100 100 100 99 100 100 100 100 100
0 0 0 2 5 41 84 100 100 100 100 100 100 100 100 100 100 100 100 100 100 100 100 100 100 100 100 100 100 100 100 100 100 100 100 100 100 100 100 100 100 100 100
0 0 0 0 0 5 100 100 100 100 100 100 100 100 100 100 100 100 100 100 100 100 100 100 94 100 100 100 100 100 100 100 100 100 100 100 100 100 100 100 100 100 100
0 0 0 0 0 5 97 100 100 100 100 100 100 100 100 100 100 100 100 100 100 100 100 100 100 100 100 100 100 100 100 100 100 100 100 100 100 100 100 100 100 100 100